STARLINK-3046, 49169

Orbit data source: Space-Track

STARLINK-3046, 49169 is a payload satellite owned by SpaceX/Seattle (US) in LEO that was launched on Tue, 14 Sep 2021 UTC via an FALCON 9 launch vehicle from the Air Force Western Test Range (AFWTR). Payload-class satellites include a variety of spacecraft equipped with specific instruments for various scientific and technological missions. These include communications satellites like Starlink; space stations such as the ISS; scientific satellites like the Hubble; Earth observation satellites from companies like Planet Labs, Umbra, and HawkEye 360; GPS; miniature CubeSats for education and research; and military/defense satellites.

Loading next visibility...
Identifier
49169, 2021-082AR
Orbit
LEO
Country
Flag of USUS
Related business
Manufacturer
SpaceX/Seattle
Mission
Operational Commercial Communications
Bus & Motor
STARLINK, Unknown motor
Mass
297 kg wet, ~275 kg dry
Launch date (UTC)
2021-09-14 (4 years ago)
Launch vehicle
FALCON 9
Launch site
Air Force Western Test Range (AFWTR)
Object type
Payload
Rocket body
Debris
Shape & HBR
Box + 1 Pan, 10.1 m
Radar Cross Section
13.562 m², Large (>1 m²)

Expand to show TLE details & history
Last TLE update: 21 hours ago

TLE from 21 hours ago
0 STARLINK-3046
1 49169U 21082AR  25286.42869711  .00000321  00000-0  34730-4 0  9990
2 49169  69.9973 285.7594 0003108 268.9926  91.0877 14.98338016224416
Epoch: 2025-10-13T10:17Z
TLE epoch observation values (Epoch: 2025-10-13T10:17:19.430Z)
Latitude
-0.00001°
Longitude
109.19682°
Altitude
574.496 km
Speed
7.574 km/s
True Right ascension
19h 03m 02s
True Declination
0° 00' 00"
Sunlit
Object was in daylight at epoch
Visualization orbit readout
Latitude
Unknown
Longitude
Unknown
Altitude
Unknown
Speed
Unknown
Apparent Right ascension
Unknown
Apparent Declination
Unknown
Sunlit
N/A
Visualization observer readout
Local Sidereal Time
01:26:17
Azimuth
Unknown
Elevation
Unknown
Doppler factor
Unknown
Orbital elements
Apogee altitude
572.139 km
Perigee altitude
567.82 km
Semi-major axis
6,948.117 km
Eccentricity
0.00031
Inclination
69.9973°
RAAN
285.7594°
Arg. of periapsis
268.9926°
True anomaly
91.12331°
Mean anomaly
91.0877°
Eccentric anomaly
91.1055°
Mean motion
3.74751 °/min
Orbital period
96.06 mins
BSTAR
0.00003473
Loading maneuver chart data...
Computing Atmospheric mass density...
Loading historical data...
Loading historical data...
Loading historical data...
Loading historical data...
Loading historical data...
Loading historical data...
Loading historical data...

Documentation

Showing up to 5 results
|